Weather History for KPDC - July, 2013

Change the Weather History Date:

Sunday, July 28, 2013

  Actual Average Record
Temperature  
Mean Temperature 60 °F -  
Max Temperature 70 °F 84 °F 101 °F (1955)
Min Temperature 51 °F 61 °F 50 °F (1965)
Degree Days  
Heating Degree Days 5    
Growing Degree Days 10 (Base 50)    
Moisture  
Dew Point 49 °F    
Average Humidity 70    
Maximum Humidity 93    
Minimum Humidity 45    
Precipitation  
Precipitation 0.00 in - - ()
Sea Level Pressure  
Sea Level Pressure 29.98 in    
Wind  
Wind Speed 8 mph (WNW)    
Max Wind Speed 13 mph    
Max Gust Speed 18 mph    
Visibility 10 miles    
Events Rain    
Averages and records for this station are not official NWS values.
T = Trace of Precipitation, MM = Missing Value Source: NWS Daily Summary

Daily Weather History Graph

Daily Weather History Graph

Search for Another Location

Airport or City:

Trip Planner

Search our weather history database for the weather conditions in past years. The results will help you decide how hot, cold, wet, or windy it might be!

Date:

Astronomy

Jul. 28, 2013 Rise Set
Actual Time 5:51 AM CDT 8:29 PM CDT
Civil Twilight 5:18 AM CDT 9:02 PM CDT
Nautical Twilight 4:37 AM CDT 9:43 PM CDT
Astronomical Twilight 3:50 AM CDT 10:29 PM CDT
Moon 11:38 PM CDT (7/28) 12:46 PM CDT (7/28)
Length of Visible Light 15h 43m
Length of Day
14h 38m
Waning Gibbous, 60% of the Moon is Illuminated
Jul 28
Waning Gibbous
Jul 29
Last Quarter
Aug 6
New
Aug 14
First Quarter
Aug 20
Full

Hourly Weather History & Observations

Time (CDT) Temp. Dew Point Humidity Pressure Visibility Wind Dir Wind Speed Gust Speed Precip Events Conditions
12:15 AM 55.8 °F 48.9 °F 78% 29.93 in 10.0 mi NW 5.8 mph - N/A Rain Rain
12:35 AM 55.0 °F 50.5 °F 85% 29.92 in 10.0 mi West 5.8 mph - N/A   Light Drizzle
12:55 AM 55.2 °F 49.1 °F 80% 29.92 in 10.0 mi WNW 11.5 mph - N/A   Light Drizzle
1:15 AM 55.0 °F 49.3 °F 81% 29.91 in 10.0 mi West 9.2 mph - N/A   Overcast
1:35 AM 54.7 °F 49.1 °F 81% 29.91 in 10.0 mi West 9.2 mph 16.1 mph N/A   Light Drizzle
1:55 AM 54.7 °F 48.9 °F 81% 29.91 in 10.0 mi West 8.1 mph 18.4 mph N/A   Overcast
2:15 AM 54.7 °F 48.2 °F 79% 29.91 in 10.0 mi West 10.4 mph - N/A   Overcast
2:35 AM 54.5 °F 48.2 °F 79% 29.91 in 10.0 mi WNW 9.2 mph - N/A   Overcast
2:55 AM 53.6 °F 47.8 °F 81% 29.91 in 10.0 mi WNW 8.1 mph - N/A   Mostly Cloudy
3:15 AM 52.9 °F 48.2 °F 84% 29.91 in 10.0 mi West 4.6 mph - N/A   Clear
3:35 AM 52.7 °F 47.8 °F 84% 29.91 in 10.0 mi WNW 8.1 mph - N/A   Scattered Clouds
3:55 AM 52.7 °F 47.8 °F 84% 29.91 in 10.0 mi WNW 6.9 mph - N/A   Mostly Cloudy
4:15 AM 52.7 °F 48.2 °F 85% 29.91 in 10.0 mi West 9.2 mph - N/A   Overcast
4:35 AM 52.9 °F 47.8 °F 83% 29.92 in 10.0 mi West 9.2 mph - N/A   Overcast
4:55 AM 52.9 °F 47.8 °F 83% 29.92 in 10.0 mi WNW 9.2 mph - N/A   Overcast
5:15 AM 52.0 °F 47.7 °F 85% 29.93 in 10.0 mi WNW 9.2 mph - N/A   Mostly Cloudy
5:35 AM 52.2 °F 47.8 °F 85% 29.94 in 10.0 mi NW 8.1 mph - N/A   Mostly Cloudy
5:55 AM 51.8 °F 47.3 °F 85% 29.95 in 10.0 mi NW 8.1 mph - N/A   Scattered Clouds
6:15 AM 51.6 °F 47.1 °F 85% 29.95 in 10.0 mi WNW 8.1 mph - N/A   Clear
6:35 AM 52.2 °F 47.3 °F 83% 29.95 in 10.0 mi WNW 10.4 mph 16.1 mph N/A   Clear
6:55 AM 52.7 °F 47.7 °F 83% 29.96 in 10.0 mi WNW 6.9 mph - N/A   Clear
7:15 AM 53.6 °F 47.1 °F 79% 29.96 in 10.0 mi NW 10.4 mph - N/A   Mostly Cloudy
7:35 AM 54.1 °F 47.7 °F 79% 29.96 in 10.0 mi NW 9.2 mph - N/A   Scattered Clouds
7:55 AM 54.1 °F 47.7 °F 79% 29.96 in 10.0 mi NW 9.2 mph - N/A   Mostly Cloudy
8:15 AM 55.2 °F 48.2 °F 77% 29.96 in 10.0 mi WNW 10.4 mph - N/A   Overcast
8:35 AM 55.0 °F 48.4 °F 78% 29.97 in 10.0 mi NW 6.9 mph - N/A   Overcast
8:55 AM 55.9 °F 48.4 °F 76% 29.97 in 10.0 mi WNW 5.8 mph - N/A   Overcast
9:15 AM 56.3 °F 48.6 °F 75% 29.97 in 10.0 mi WNW 5.8 mph - N/A   Overcast
9:35 AM 57.2 °F 48.6 °F 73% 29.97 in 10.0 mi NW 6.9 mph - N/A   Overcast
9:55 AM 57.4 °F 48.2 °F 71% 29.97 in 10.0 mi NW 6.9 mph - N/A   Overcast
10:15 AM 58.1 °F 47.7 °F 68% 29.98 in 10.0 mi NW 8.1 mph - N/A   Overcast
10:35 AM 58.3 °F 47.8 °F 68% 29.99 in 10.0 mi WNW 10.4 mph - N/A   Overcast
10:55 AM 59.0 °F 48.2 °F 67% 29.99 in 10.0 mi WNW 6.9 mph - N/A   Overcast
11:15 AM 60.1 °F 48.4 °F 65% 29.99 in 10.0 mi WNW 5.8 mph - N/A   Overcast
11:35 AM 61.5 °F 48.9 °F 63% 29.99 in 10.0 mi West 4.6 mph - N/A   Mostly Cloudy
11:55 AM 61.9 °F 48.4 °F 61% 29.99 in 10.0 mi WNW 4.6 mph - N/A   Overcast
12:15 PM 63.7 °F 49.1 °F 59% 29.98 in 10.0 mi West 8.1 mph - N/A   Overcast
12:35 PM 63.7 °F 48.6 °F 58% 29.98 in 10.0 mi WNW 11.5 mph 16.1 mph N/A   Mostly Cloudy
12:55 PM 64.2 °F 48.9 °F 58% 29.98 in 10.0 mi West 10.4 mph - N/A   Overcast
1:15 PM 65.7 °F 49.1 °F 55% 29.99 in 10.0 mi WNW 6.9 mph - N/A   Mostly Cloudy
1:35 PM 65.1 °F 48.9 °F 56% 29.99 in 10.0 mi West 12.7 mph - N/A   Mostly Cloudy
1:55 PM 66.4 °F 48.4 °F 52% 29.99 in 10.0 mi West 10.4 mph 17.3 mph N/A   Mostly Cloudy
2:15 PM 66.9 °F 48.4 °F 51% 29.99 in 10.0 mi West 8.1 mph 17.3 mph N/A   Overcast
2:35 PM 66.7 °F 47.8 °F 51% 29.99 in 10.0 mi West 12.7 mph 16.1 mph N/A   Overcast
2:55 PM 68.0 °F 48.9 °F 50% 29.98 in 10.0 mi West 11.5 mph - N/A   Overcast
3:15 PM 67.3 °F 47.8 °F 50% 29.99 in 10.0 mi WNW 11.5 mph - N/A   Mostly Cloudy
3:35 PM 68.2 °F 47.8 °F 48% 29.98 in 10.0 mi West 10.4 mph - N/A   Mostly Cloudy
3:55 PM 69.3 °F 47.5 °F 46% 29.98 in 10.0 mi West 10.4 mph 17.3 mph N/A   Mostly Cloudy
4:15 PM 69.3 °F 47.1 °F 45% 29.98 in 10.0 mi West 10.4 mph 17.3 mph N/A   Scattered Clouds
4:35 PM 69.4 °F 47.3 °F 45% 29.98 in 10.0 mi West 11.5 mph 16.1 mph N/A   Scattered Clouds
4:55 PM 68.0 °F 47.5 °F 48% 29.98 in 10.0 mi West 10.4 mph 16.1 mph N/A   Mostly Cloudy
5:15 PM 68.4 °F 46.6 °F 46% 29.99 in 10.0 mi WNW 9.2 mph 18.4 mph N/A   Mostly Cloudy
5:35 PM 68.5 °F 47.1 °F 46% 29.99 in 10.0 mi WNW 10.4 mph - N/A   Overcast
5:55 PM 68.5 °F 47.7 °F 47% 29.99 in 10.0 mi WNW 8.1 mph - N/A   Overcast
6:15 PM 68.0 °F 48.2 °F 49% 29.99 in 10.0 mi West 8.1 mph - N/A   Overcast
6:35 PM 67.8 °F 48.4 °F 50% 29.99 in 10.0 mi WNW 8.1 mph - N/A   Overcast
6:55 PM 68.4 °F 49.1 °F 50% 30.00 in 10.0 mi West 5.8 mph - N/A   Scattered Clouds
7:15 PM 68.0 °F 48.7 °F 50% 30.00 in 10.0 mi WNW 6.9 mph - N/A   Clear
7:35 PM 67.1 °F 49.6 °F 53% 30.00 in 10.0 mi West 4.6 mph - N/A   Clear
7:55 PM 65.7 °F 50.9 °F 59% 30.01 in 10.0 mi WNW 5.8 mph - N/A   Clear
8:15 PM 64.8 °F 51.3 °F 62% 30.01 in 10.0 mi Calm Calm - N/A   Clear
8:35 PM 62.1 °F 52.3 °F 70% 30.01 in 10.0 mi Calm Calm - N/A   Clear
8:55 PM 59.9 °F 54.0 °F 81% 30.02 in 10.0 mi Calm Calm - N/A   Clear
9:15 PM 58.8 °F 53.4 °F 82% 30.03 in 10.0 mi ENE 3.5 mph - N/A   Clear
9:35 PM 58.3 °F 53.2 °F 83% 30.04 in 10.0 mi East 3.5 mph - N/A   Clear
9:55 PM 57.6 °F 53.1 °F 85% 30.04 in 10.0 mi Calm Calm - N/A   Clear
10:15 PM 56.3 °F 52.5 °F 87% 30.05 in 10.0 mi Calm Calm - N/A   Clear
10:35 PM 55.8 °F 52.7 °F 89% 30.05 in 10.0 mi Calm Calm - N/A   Clear
10:55 PM 55.0 °F 52.2 °F 90% 30.05 in 10.0 mi Calm Calm - N/A   Clear
11:15 PM 54.5 °F 51.8 °F 91% 30.05 in 10.0 mi Calm Calm - N/A   Clear
11:35 PM 54.5 °F 52.2 °F 92% 30.06 in 10.0 mi Calm Calm - N/A   Clear
11:55 PM 53.8 °F 51.8 °F 93% 30.06 in 10.0 mi Calm Calm - N/A   Clear